#timestamp,LO_Frequency,Hit,StdDev 
1518260415.6,286047004.4,N
1518260435.5,286047004.0,N
1518260455.3,286047003.0,N
1518260475.2,286047006.0,Y
1518260495.9,286047002.7,P
1518260515.7,286047000.3,N
1518260535.6,286046999.7,N
1518260555.4,286047002.4,N
1518260575.3,286047000.9,N
1518260595.1,286047000.4,N
1518260596.0,286047000.4,N
1518260615.8,286046998.2,N
1518260635.7,286046997.4,N
1518260655.5,286046995.3,N
1518260675.3,286046998.9,N
1518260695.2,286047000.3,N
1518260715.0,286047000.7,N
1518260715.9,286047000.7,N
1518260735.8,286046998.6,N
1518260755.6,286047001.2,N
1518260775.4,286047000.2,N
1518260795.3,286047002.3,N
1518260815.1,286047000.1,N
1518260835.9,286047002.2,N
1518260855.7,286047001.8,N
1518260875.5,286047000.1,N
1518260895.4,286047000.0,N
1518260915.2,286047000.8,N
1518260935.1,286046999.9,N
1518260936.0,286046999.9,N
1518260955.8,286047000.1,N
1518260975.6,286047002.0,N
1518260995.5,286047002.8,N
1518261015.3,286047001.0,N
1518261035.1,286047001.1,N
1518261055.9,286047000.9,N
1518261075.7,286046998.6,N
1518261095.6,286046998.8,N
1518261115.4,286046998.1,N
1518261135.2,286046998.1,N
1518261155.1,286046998.1,N
1518261156.0,286046998.1,N
1518261175.8,286047000.6,N
1518261195.7,286046998.3,N
1518261215.5,286046998.2,N
1518261235.3,286046998.6,N
1518261255.2,286047000.8,N
1518261275.0,286046997.1,N
1518261275.9,286046997.1,N
1518261295.8,286046997.0,N
1518261315.6,286046996.6,N
1518261335.4,286046996.8,N
1518261355.3,286046997.2,N
1518261375.1,286046997.3,N
1518261395.9,286046997.4,N
1518261415.7,286046996.7,N
1518261435.5,286047000.8,N
1518261455.4,286047002.6,N
1518261475.2,286047002.0,N
1518261495.0,286047001.4,N
1518261495.9,286047001.4,N
1518261515.8,286047004.3,N
1518261535.6,286047002.1,N
1518261555.5,286047002.4,N
1518261575.3,286047002.6,N
1518261595.1,286047000.6,N
1518261615.9,286047000.8,N
1518261635.7,286047001.0,N
1518261655.5,286047000.1,N
1518261675.4,286047004.2,N
1518261695.2,286047003.1,N
1518261715.1,286047001.5,N
1518261716.0,286047001.5,N
1518261735.8,286047002.2,N
1518261755.6,286047002.3,N
1518261775.5,286047002.1,N
1518261795.3,286047001.3,N
1518261815.2,286047004.4,N
1518261835.0,286047004.2,N
1518261835.9,286047004.2,N
1518261855.8,286047000.1,N
1518261875.6,286047000.9,N
1518261895.4,286046998.7,N
1518261915.3,286047000.9,N
1518261935.1,286046998.7,N
1518261955.8,286046998.6,N
1518261975.7,286046998.9,N
1518261995.5,286046997.0,N
1518262015.4,286047001.2,N
1518262035.2,286046996.6,N
1518262055.0,286046997.2,N
1518262055.9,286046997.2,N
1518262075.8,286046997.3,N
1518262095.6,286046996.8,N
1518262115.4,286046996.5,N
1518262135.3,286047000.6,N
1518262155.1,286046998.4,N
1518262175.9,286047000.5,N
1518262195.7,286047002.8,N
1518262215.5,286047000.1,N
1518262235.4,286047002.3,N
1518262255.2,286047001.3,N
1518262275.1,286047011.9,Y
1518262276.0,286046999.7,P
1518262295.8,286047004.1,P
1518262315.6,286047001.4,N
1518262335.5,286047002.8,N
1518262355.3,286047002.5,N
1518262375.1,286047001.1,N
1518262395.9,286047000.8,N
1518262415.7,286047000.8,N
1518262435.6,286047000.3,N
1518262455.4,286047002.4,N
1518262475.2,286047003.1,N
1518262495.1,286047003.6,N
1518262496.0,286047003.6,N
1518262515.8,286047004.3,Y
1518262535.7,286047000.9,P
1518262555.5,286046998.6,N
1518262575.3,286046998.2,N
1518262595.2,286046998.4,N
1518262615.0,286047001.1,N
1518262615.9,286047001.1,N
1518262635.7,286047001.1,N
1518262655.6,286047001.1,N
1518262675.4,286047000.8,N
1518262695.3,286046999.1,N
1518262715.1,286046998.9,N
1518262716.0,286046998.9,N
1518262735.8,286047000.4,N
1518262755.7,286047005.6,Y
1518262775.5,286047012.4,P
1518262795.4,286047005.7,N
1518262815.2,286047003.0,N
1518262835.0,286047001.4,N
1518262835.9,286047001.4,N
1518262855.8,286047002.0,N
1518262875.6,286047002.1,N
1518262895.5,286047003.7,N
1518262915.3,286047003.4,N
1518262935.1,286047006.0,N
1518262955.9,286047004.2,N
1518262975.7,286047003.6,N
1518262995.5,286047004.0,N
1518263015.4,286047001.8,N
1518263035.2,286047001.7,N
1518263055.1,286047001.8,N
1518263056.0,286047001.8,N
1518263075.8,286047000.9,N
1518263095.6,286047000.2,N
1518263115.5,286047002.0,N
1518263135.3,286047004.0,N
1518263155.1,286047002.4,N
1518263175.9,286047001.0,N
1518263195.7,286046999.4,N
1518263215.6,286046998.0,N
1518263235.4,286046995.2,N
1518263255.2,286046995.8,N
1518263275.1,286046999.2,N
1518263276.0,286046999.2,N
1518263295.8,286046996.9,N
1518263315.7,286046998.8,N
1518263335.5,286046998.5,N
1518263355.3,286047000.6,N
1518263375.2,286046998.3,N
1518263395.0,286047000.5,N
1518263395.9,286047000.5,N
1518263415.7,286047000.7,N
1518263435.6,286046998.4,N
1518263455.4,286046998.4,N
1518263475.3,286046999.0,N
1518263495.1,286046999.1,N
1518263496.0,286046999.1,N
1518263515.8,286046999.6,N
1518263535.7,286046996.7,N
1518263555.5,286046996.5,N
1518263575.3,286046998.3,N
1518263595.2,286046998.9,N
1518263615.0,286046999.4,N
1518263615.9,286046999.4,N
1518263635.8,286046998.1,N
1518263655.6,286047001.2,N
1518263675.4,286047001.2,N
1518263695.3,286047000.6,N
1518263715.1,286047000.8,N
1518263735.9,286046999.1,N
1518263755.7,286046998.9,N
1518263775.5,286047003.3,N
1518263795.4,286047005.4,Y
1518263815.2,286047005.5,P
1518263835.1,286047004.4,N
1518263836.0,286047004.4,N
1518263855.8,286047001.8,N
1518263875.6,286047000.9,N
1518263895.5,286046999.2,N
1518263915.3,286046996.9,N
1518263935.2,286046997.5,N
1518263955.9,286046997.9,N
1518263975.7,286046995.9,N
1518263995.6,286046994.8,N
